Flag for U.S.A. Weather past 2 weeks in Sevierville, Tennessee, U.S.A.

Now
42 °F

Overcast.


Feels Like: 36 °F
Forecast: 26 / 39 °F
Wind: 10 mph from West

Location: McGhee Tyson Airport

Current Time: Jan 30, 2015 at 12:22:12 AM

Latest Report: Jan 29, 2015 at 11:53 PM


Visibility: 10 mi

Pressure: 30.19 "Hg

Humidity: 73%

Dew point: 34 °F

Location of SeviervilleLocation

Historic Weather in Sevierville — Graph

°F

Sevierville temperature yesterday

Maximum temperature yesterday: 56 °F (at 2:53 PM)
Minimum temperature yesterday: 27 °F (at 3:53 AM)
Average temperature yesterday: 41 °F

Past Weeks' High & Low Weather Summary

 TemperatureHumidityPressure
High62 °F (Jan 20, 2:53 PM)100% (Jan 23, 7:53 PM)30.37 "Hg (Jan 23, 7:53 PM)
Low24 °F (Jan 17, 7:53 AM)29% (Jan 18, 3:53 PM)29.66 "Hg (Jan 26, 1:53 AM)
Average40 °F68%30.06 "Hg
* Reported Jan 14 10:53 PM — Jan 29 10:53 PM, Sevierville, Weather by CustomWeather, © 2014

Note: Actual official high and low records may vary slightly from our data, if they occured in-between our weather recording intervals... More about our weather records

Advertising

Sevierville weather history for previous 24 hours

 ConditionsComfort  
Time TempWeatherWind HumidityBarometerVisibility
10:53 PM
Jan 29
45 °FLight rain. Mostly cloudy.15 mph71%30.15 "Hg10 mi
9:53 PM49 °FMostly cloudy.20 mph69%30.10 "Hg10 mi
8:53 PM53 °FOvercast.22 mph51%30.05 "Hg10 mi
7:53 PM53 °FMostly cloudy.15 mph52%30.05 "Hg10 mi
6:53 PM53 °FOvercast.21 mph52%30.04 "Hg10 mi
5:53 PM53 °FPartly sunny.16 mph51%30.04 "Hg10 mi
4:53 PM54 °FScattered clouds.23 mph49%30.03 "Hg10 mi
3:53 PM56 °FScattered clouds.28 mph46%30.01 "Hg10 mi
2:53 PM56 °FPassing clouds.20 mph44%30.01 "Hg10 mi
1:53 PM55 °FPassing clouds.21 mph47%30.03 "Hg10 mi
12:53 PM44 °FScattered clouds.3 mph71%30.09 "Hg10 mi
11:53 AM36 °FPartly sunny.3 mph79%30.14 "Hg10 mi
10:53 AM34 °FLight rain. Mostly cloudy.No wind79%30.19 "Hg10 mi
9:53 AM33 °FMostly cloudy.No wind75%30.21 "Hg10 mi
8:53 AM30 °FCloudy.3 mph79%30.20 "Hg10 mi
7:53 AM28 °FMore clouds than sun.No wind81%30.22 "Hg10 mi
6:53 AM28 °FPassing clouds.3 mph81%30.20 "Hg10 mi
5:53 AM29 °FPassing clouds.3 mph79%30.21 "Hg10 mi
3:53 AM27 °FHigh level clouds.No wind85%30.22 "Hg10 mi
2:53 AM28 °FHigh level clouds.5 mph78%30.25 "Hg10 mi
1:53 AM29 °FHigh level clouds.3 mph79%30.25 "Hg10 mi
12:53 AM29 °FPassing clouds.3 mph75%30.26 "Hg10 mi
Weather by CustomWeather, © 2014

See weather overviewHow to use our weather pages